When you browse on this site, cookies collect data to enhance your experience and personalize the content and advertising you see.
Visit our Privacy Policy to learn more. By continuing to use the site, you agree to this use of cookies and data.
  • In Österreich
  • Länderverzeichnis
  • Für 7 Tage
  • Wassertemperatur
  • Satellitenkarten
  • Wetterkarte
  • News
  • Widgets
  • user-avatar
    Anmelden

    Stündliche Wetter Rivne

    Heute, 16 Dezember, Sonntag

    Zeit Temperatur Niederschläge Wind Luftdruck Luftfeuchtigkeit
    00:00 -2°C° 0.7 mm 5 m/S 731 mmHg 98%
    01:00 -2°C° 0.5 mm 5 m/S 731 mmHg 98%
    02:00 -1°C° 0.3 mm 5 m/S 730 mmHg 98%
    03:00 -1°C° 0.3 mm 5 m/S 730 mmHg 99%
    04:00 -1°C° 0.3 mm 4 m/S 729 mmHg 100%
    05:00 -1°C° 0.4 mm 4 m/S 729 mmHg 100%
    06:00 0°C° 0.8 mm 3 m/S 729 mmHg 100%
    07:00 0°C° 0.9 mm 3 m/S 729 mmHg 100%
    08:00 0°C° 0.6 mm 3 m/S 730 mmHg 100%
    09:00 +1°C° 0.5 mm 2 m/S 730 mmHg 100%
    10:00 +2°C° 0.6 mm 1 m/S 730 mmHg 100%
    11:00 +3°C° 0.4 mm 1 m/S 731 mmHg 100%
    12:00 +3°C° 0.1 mm 1 m/S 731 mmHg 100%
    13:00 +3°C° 0.1 mm 1 m/S 731 mmHg 100%
    14:00 +2°C° 0.4 mm 1 m/S 731 mmHg 100%
    15:00 +2°C° 1 mm 1 m/S 731 mmHg 100%
    16:00 +1°C° 1.4 mm 1 m/S 731 mmHg 100%
    17:00 +1°C° 1.3 mm 1 m/S 732 mmHg 100%
    18:00 +1°C° 0.9 mm 1 m/S 732 mmHg 100%
    19:00 0°C° 0.6 mm 1 m/S 733 mmHg 100%
    20:00 -2°C° 0.6 mm 2 m/S 733 mmHg 100%
    21:00 -2°C° 0.3 mm 2 m/S 733 mmHg 100%
    22:00 -3°C° 0.1 mm 2 m/S 733 mmHg 100%
    23:00 -3°C° 0 mm 2 m/S 733 mmHg 100%

    Morgen, 17 Dezember, Montag

    Zeit Temperatur Niederschläge Wind Luftdruck Luftfeuchtigkeit
    00:00 -4°C° 0 mm 2 m/S 733 mmHg 100%
    01:00 -4°C° 0.1 mm 2 m/S 734 mmHg 100%
    02:00 -5°C° 0.2 mm 2 m/S 734 mmHg 100%
    03:00 -3°C° 0.1 mm 1 m/S 734 mmHg 100%
    04:00 -6°C° 0.1 mm 2 m/S 733 mmHg 100%
    05:00 -6°C° 0 mm 2 m/S 733 mmHg 100%
    06:00 -6°C° 0 mm 2 m/S 733 mmHg 100%
    07:00 -5°C° 0 mm 0 m/S 733 mmHg 100%
    08:00 -6°C° 0 mm 1 m/S 733 mmHg 100%
    09:00 -6°C° 0 mm 1 m/S 733 mmHg 100%
    10:00 -4°C° 0.1 mm 1 m/S 733 mmHg 100%
    11:00 -4°C° 0 mm 1 m/S 733 mmHg 100%
    12:00 -4°C° 0 mm 0 m/S 734 mmHg 100%
    13:00 -3°C° 0 mm 0 m/S 733 mmHg 100%
    14:00 -2°C° 0 mm 0 m/S 733 mmHg 99%
    15:00 0°C° 0 mm 1 m/S 733 mmHg 100%
    16:00 -1°C° 0 mm 1 m/S 733 mmHg 100%
    17:00 -2°C° 0 mm 1 m/S 733 mmHg 100%
    18:00 -2°C° 0 mm 1 m/S 733 mmHg 100%
    19:00 -3°C° 0 mm 0 m/S 733 mmHg 100%
    20:00 -2°C° 0 mm 0 m/S 734 mmHg 99%
    21:00 -2°C° 0.1 mm 0 m/S 734 mmHg 100%
    22:00 -2°C° 0.4 mm 0 m/S 734 mmHg 100%
    23:00 -1°C° 0.6 mm 0 m/S 734 mmHg 100%

    übermorgen, 18 Dezember, Dienstag

    Zeit Temperatur Niederschläge Wind Luftdruck Luftfeuchtigkeit
    00:00 -1°C° 0.6 mm 0 m/S 735 mmHg 100%
    01:00 -1°C° 0.4 mm 0 m/S 735 mmHg 100%
    02:00 0°C° 0.2 mm 0 m/S 735 mmHg 100%
    03:00 0°C° 0.1 mm 0 m/S 735 mmHg 100%
    04:00 0°C° 0 mm 0 m/S 735 mmHg 100%
    05:00 0°C° 0 mm 0 m/S 735 mmHg 100%
    06:00 0°C° 0 mm 0 m/S 735 mmHg 100%
    07:00 +1°C° 0 mm 1 m/S 736 mmHg 98%
    08:00 +1°C° 0 mm 1 m/S 736 mmHg 97%
    09:00 -1°C° 0.1 mm 2 m/S 737 mmHg 95%
    10:00 +1°C° 0 mm 1 m/S 737 mmHg 94%
    11:00 +1°C° 0 mm 1 m/S 737 mmHg 96%
    12:00 +1°C° 0 mm 0 m/S 737 mmHg 98%
    13:00 +1°C° 0.1 mm 0 m/S 737 mmHg 99%
    14:00 +1°C° 0.1 mm 0 m/S 737 mmHg 99%
    15:00 +1°C° 0.1 mm 0 m/S 737 mmHg 100%
    16:00 +2°C° 0.1 mm 1 m/S 737 mmHg 100%
    17:00 0°C° 0.2 mm 0 m/S 737 mmHg 100%
    18:00 +1°C° 0.2 mm 1 m/S 737 mmHg 100%
    19:00 +1°C° 0.2 mm 1 m/S 737 mmHg 100%
    20:00 +1°C° 0.1 mm 1 m/S 737 mmHg 99%
    21:00 +1°C° 0.1 mm 1 m/S 738 mmHg 98%
    22:00 +1°C° 0.1 mm 1 m/S 737 mmHg 100%
    23:00 +1°C° 0.1 mm 1 m/S 738 mmHg 100%

    19 Dezember, Mittwoch

    Zeit Temperatur Niederschläge Wind Luftdruck Luftfeuchtigkeit
    00:00 +1°C° 0 mm 1 m/S 738 mmHg 97%
    01:00 0°C° 0 mm 0 m/S 737 mmHg 95%
    02:00 0°C° 0 mm 0 m/S 737 mmHg 95%
    03:00 0°C° 0 mm 0 m/S 737 mmHg 95%
    04:00 0°C° 0 mm 1 m/S 737 mmHg 96%
    05:00 -1°C° 0 mm 0 m/S 737 mmHg 93%
    06:00 0°C° 0 mm 1 m/S 737 mmHg 96%
    07:00 -1°C° 0 mm 1 m/S 737 mmHg 100%
    08:00 -1°C° 0 mm 1 m/S 738 mmHg 100%
    09:00 -1°C° 0 mm 1 m/S 738 mmHg 100%
    10:00 -1°C° 0 mm 1 m/S 738 mmHg 100%
    11:00 -2°C° 0 mm 0 m/S 738 mmHg 100%
    12:00 -1°C° 0 mm 0 m/S 739 mmHg 99%
    13:00 0°C° 0 mm 1 m/S 738 mmHg 99%
    14:00 0°C° 0 mm 1 m/S 739 mmHg 100%

    20 Dezember, Donnerstag

    Zeit Temperatur Niederschläge Wind Luftdruck Luftfeuchtigkeit

    21 Dezember, Freitag

    Zeit Temperatur Niederschläge Wind Luftdruck Luftfeuchtigkeit
    Mehr zeigen